GW7197 Weather Reports


Display with metric or nautical units.
time (UTC)temp
F
wind
direction
speed
MPH
gust
MPH
rain 1hr
in
rain 24hr
in
rain mn
in
humidity
%
barometer
mb
20260504185241 78 278 1.0 2.0 0.00 0.00 0.00 72 1020.1
20260504184737 79 302 1.0 4.0 0.00 0.00 0.00 72 1020.1
20260504184233 79 243 2.0 3.0 0.00 0.00 0.00 73 1020.0
20260504183729 78 227 1.0 1.0 0.00 0.00 0.00 75 1020.3
20260504183226 77 227 1.0 2.0 0.00 0.00 0.00 76 1020.1
20260504182724 76 230 2.0 3.0 0.00 0.00 0.00 75 1020.1
20260504182221 76 238 2.0 3.0 0.00 0.00 0.00 75 1020.1
20260504181718 76 235 2.0 2.0 0.00 0.00 0.00 76 1020.1
20260504181216 76 234 2.0 3.0 0.00 0.00 0.00 75 1020.0
20260504180715 77 249 2.0 2.0 0.00 0.00 0.00 75 1020.0
20260504180213 78 238 1.0 2.0 0.00 0.00 0.00 77 1020.0
20260504175710 77 226 0.0 1.0 0.00 0.00 0.00 78 1020.0
20260504175207 76 236 0.0 1.0 0.00 0.00 0.00 79 1020.0
20260504174705 76 234 0.0 0.0 0.00 0.00 0.00 79 1019.8
20260504174202 75 235 0.0 1.0 0.00 0.00 0.00 81 1019.8
20260504173658 74 219 0.0 1.0 0.00 0.00 0.00 83 1019.9
20260504173156 73 215 0.0 1.0 0.00 0.00 0.00 83 1019.9
20260504172652 73 201 1.0 2.0 0.00 0.00 0.00 84 1020.0
20260504172149 72 226 0.0 1.0 0.00 0.00 0.00 87 1019.9
20260504171645 71 221 0.0 1.0 0.00 0.00 0.00 87 1019.9
20260504171143 70 219 0.0 1.0 0.00 0.00 0.00 88 1019.9
20260504170639 69 218 0.0 1.0 0.00 0.00 0.00 89 1019.9
20260504170136 69 226 0.0 2.0 0.00 0.00 0.00 89 1019.8
20260504151027 66 217 0.0 1.0 0.00 0.00 0.00 90 1018.9
20260504150525 66 209 1.0 2.0 0.00 0.00 0.00 90 1018.7
20260504140956 67 225 0.0 1.0 0.00 0.00 0.00 90 1018.4
20260504140453 66 194 2.0 2.0 0.00 0.00 0.00 90 1018.3
20260504130418 67 215 0.0 2.0 0.00 0.00 0.00 89 1018.2
20260504110304 69 198 1.0 2.0 0.00 0.00 0.00 85 1019.6
20260504100222 70 210 1.0 2.0 0.00 0.00 0.00 83 1020.0
20260504081615 72 205 1.0 2.0 0.00 0.00 0.00 81 1020.4
20260504081111 72 224 0.0 0.0 0.00 0.00 0.00 81 1020.6
20260504080609 72 221 0.0 1.0 0.00 0.00 0.00 80 1020.3
20260504080105 72 230 0.0 0.0 0.00 0.00 0.00 80 1020.6
20260504050421 75 339 4.0 6.0 0.00 0.00 0.00 78 1018.7
20260504045918 75 7 3.0 4.0 0.00 0.00 0.00 78 1018.6
20260504045414 75 22 4.0 6.0 0.00 0.00 0.00 77 1018.7
20260504044910 75 258 2.0 3.0 0.00 0.00 0.00 77 1018.5
20260504044408 75 246 2.0 10.0 0.00 0.00 0.00 76 1018.4
20260504043905 76 131 4.0 11.0 0.00 0.00 0.00 76 1018.4
20260504043402 76 51 2.0 4.0 0.00 0.00 0.00 74 1018.5
20260504042859 76 327 4.0 9.0 0.00 0.00 0.00 74 1018.5
20260504042355 76 257 2.0 3.0 0.00 0.00 0.00 74 1018.3
20260504041852 76 227 2.0 2.0 0.00 0.00 0.00 74 1018.2
20260504041348 77 159 1.0 3.0 0.00 0.00 0.00 73 1018.5
20260504040844 77 25 2.0 3.0 0.00 0.00 0.00 73 1018.1
20260504040342 77 38 2.0 3.0 0.00 0.00 0.00 74 1018.2
20260504035837 77 291 2.0 3.0 0.00 0.00 0.00 72 1018.1
20260504035336 77 248 2.0 6.0 0.00 0.00 0.00 74 1017.9
20260504034832 77 99 4.0 10.0 0.00 0.00 0.00 73 1017.9
20260504034330 77 211 4.0 11.0 0.00 0.00 0.00 73 1018.1
20260504033827 78 332 6.0 9.0 0.00 0.00 0.00 73 1017.8
20260504033325 78 354 6.0 8.0 0.00 0.00 0.00 71 1017.9
20260504032821 78 273 2.0 4.0 0.00 0.00 0.00 71 1017.8
20260504032319 79 310 1.0 7.0 0.00 0.00 0.00 69 1017.7
20260504031815 80 343 4.0 8.0 0.00 0.00 0.00 69 1017.7
20260504031313 80 266 3.0 8.0 0.00 0.00 0.00 67 1017.7
20260504030809 79 86 4.0 7.0 0.00 0.00 0.00 69 1017.5
20260504030306 79 184 3.0 11.0 0.00 0.00 0.00 69 1017.4
20260504025802 79 309 5.0 7.0 0.00 0.00 0.00 72 1017.5
20260504025259 79 340 6.0 14.0 0.00 0.00 0.00 71 1017.2
20260504024755 78 34 5.0 14.0 0.00 0.00 0.00 71 1017.3
20260504024252 78 88 8.0 13.0 0.00 0.00 0.00 70 1017.2
20260504023749 79 45 5.0 9.0 0.00 0.00 0.00 70 1017.2
20260504023245 78 54 6.0 11.0 0.00 0.00 0.00 70 1017.0
20260504022741 78 45 7.0 13.0 0.00 0.00 0.00 69 1017.3
20260504022238 78 60 9.0 11.0 0.00 0.00 0.00 68 1017.4
20260504021735 78 41 10.0 14.0 0.00 0.00 0.00 69 1017.2
20260504021232 79 13 7.0 13.0 0.00 0.00 0.00 70 1017.3
20260504020729 79 223 5.0 7.0 0.00 0.00 0.00 68 1017.3
20260504020226 79 36 4.0 9.0 0.00 0.00 0.00 68 1017.1
20260504015722 79 225 6.0 13.0 0.00 0.00 0.00 68 1017.4
20260504015218 80 344 3.0 11.0 0.00 0.00 0.00 67 1017.4
20260504014714 80 139 8.0 17.0 0.00 0.00 0.00 69 1017.3
20260504014211 80 358 6.0 14.0 0.00 0.00 0.00 68 1017.4
20260504013709 80 287 6.0 14.0 0.00 0.00 0.00 70 1017.5
20260504013206 80 106 4.0 15.0 0.00 0.00 0.00 69 1017.5
20260504012703 79 20 12.0 15.0 0.00 0.00 0.00 70 1017.3
20260504012201 79 3 13.0 16.0 0.00 0.00 0.00 72 1017.4
20260504011657 78 16 6.0 21.0 0.00 0.00 0.00 75 1017.5
20260504011154 78 352 9.0 16.0 0.00 0.00 0.00 75 1017.3
20260504010649 78 348 9.0 17.0 0.00 0.00 0.00 76 1017.4
20260504010145 78 18 4.0 9.0 0.00 0.00 0.00 76 1017.6
20260504005643 78 352 14.0 16.0 0.00 0.00 0.00 75 1017.5
20260504005139 78 352 10.0 14.0 0.00 0.00 0.00 74 1017.5
20260504004637 80 3 15.0 22.0 0.00 0.00 0.00 71 1017.3
20260504004134 80 335 6.0 10.0 0.00 0.00 0.00 68 1017.4
20260504003630 81 308 4.0 9.0 0.00 0.00 0.00 66 1017.4
20260504003127 81 79 5.0 11.0 0.00 0.00 0.00 65 1017.4
20260504002624 81 2 4.0 10.0 0.00 0.00 0.00 65 1017.6
20260504002122 81 23 6.0 11.0 0.00 0.00 0.00 65 1017.6
20260504001619 80 352 6.0 11.0 0.00 0.00 0.00 66 1017.5
20260504001115 80 7 6.0 10.0 0.00 0.00 0.00 66 1017.8
20260504000612 80 36 5.0 9.0 0.00 0.00 0.00 67 1017.6
20260504000110 80 5 8.0 11.0 0.00 0.00 0.00 65 1017.8
20260503235608 81 78 8.0 15.0 0.00 0.00 0.00 66 1017.7
20260503235104 81 27 5.0 10.0 0.00 0.00 0.00 67 1017.6
20260503234603 80 34 4.0 9.0 0.00 0.00 0.00 66 1017.8
20260503234100 80 28 2.0 10.0 0.00 0.00 0.00 67 1017.9
20260503233556 80 52 6.0 13.0 0.00 0.00 0.00 66 1017.6
20260503233052 81 24 9.0 11.0 0.00 0.00 0.00 65 1017.8
20260503232550 80 41 1.0 8.0 0.00 0.00 0.00 66 1017.7
20260503232047 80 40 3.0 10.0 0.00 0.00 0.00 65 1017.9
20260503231545 80 242 4.0 11.0 0.00 0.00 0.00 64 1017.8
20260503231041 81 54 6.0 19.0 0.00 0.00 0.00 64 1017.8
20260503230538 81 33 7.0 9.0 0.00 0.00 0.00 65 1017.8
20260503230036 81 24 2.0 11.0 0.00 0.00 0.00 67 1018.1
20260503225533 81 51 3.0 8.0 0.00 0.00 0.00 66 1017.9
20260503225032 81 34 3.0 10.0 0.00 0.00 0.00 66 1017.7
20260503224531 81 77 3.0 9.0 0.00 0.00 0.00 66 1018.0
20260503224028 81 12 7.0 10.0 0.00 0.00 0.00 69 1018.0
20260503223526 80 29 5.0 9.0 0.00 0.00 0.00 70 1018.0
20260503223021 80 40 4.0 9.0 0.00 0.00 0.00 69 1018.1
20260503222520 80 37 4.0 8.0 0.00 0.00 0.00 70 1018.2
20260503222017 80 80 4.0 11.0 0.00 0.00 0.00 70 1018.1
20260503221515 81 117 11.0 15.0 0.00 0.00 0.00 67 1018.2
20260503221013 81 340 4.0 8.0 0.00 0.00 0.00 69 1018.4
20260503220509 80 231 3.0 8.0 0.00 0.00 0.00 70 1018.6
20260503220006 79 320 4.0 11.0 0.00 0.00 0.00 73 1018.4
20260503215503 78 280 7.0 9.0 0.00 0.00 0.00 74 1018.6
20260503215000 78 13 4.0 13.0 0.00 0.00 0.00 74 1018.7
20260503214458 78 48 2.0 8.0 0.00 0.00 0.00 74 1018.8
20260503213955 78 213 5.0 11.0 0.00 0.00 0.00 74 1018.9
20260503213453 78 218 5.0 10.0 0.00 0.00 0.00 74 1018.5
20260503212949 78 345 7.0 8.0 0.00 0.00 0.00 75 1018.8
20260503212446 77 183 2.0 9.0 0.00 0.00 0.00 77 1019.2
20260503211943 76 31 6.0 13.0 0.00 0.00 0.00 80 1019.1
20260503211441 76 349 7.0 9.0 0.00 0.00 0.00 79 1018.9
20260503210936 76 355 9.0 11.0 0.00 0.00 0.00 80 1018.9
20260503210433 76 337 12.0 13.0 0.00 0.00 0.00 79 1019.1
20260503205928 76 343 10.0 13.0 0.00 0.00 0.00 76 1019.2
20260503205425 77 353 8.0 13.0 0.00 0.00 0.00 75 1019.1
20260503204921 78 41 7.0 10.0 0.00 0.00 0.00 72 1019.3
20260503204419 78 44 4.0 8.0 0.00 0.00 0.00 71 1019.1
20260503203916 78 334 2.0 11.0 0.00 0.00 0.00 70 1019.3
20260503203413 79 6 12.0 16.0 0.00 0.00 0.00 71 1018.9
20260503202910 79 219 2.0 4.0 0.00 0.00 0.00 67 1019.1
20260503202408 80 45 6.0 8.0 0.00 0.00 0.00 67 1019.3
20260503201906 80 220 4.0 8.0 0.00 0.00 0.00 66 1019.4
20260503201403 81 49 2.0 8.0 0.00 0.00 0.00 68 1019.1
20260503200900 79 323 1.0 7.0 0.00 0.00 0.00 73 1019.0
20260503200356 78 211 2.0 6.0 0.00 0.00 0.00 74 1019.2
20260503195854 78 233 1.0 7.0 0.00 0.00 0.00 73 1019.3
20260503195350 77 46 4.0 9.0 0.00 0.00 0.00 76 1019.2
20260503194847 78 82 4.0 14.0 0.00 0.00 0.00 73 1019.2
20260503194343 79 46 5.0 9.0 0.00 0.00 0.00 73 1019.2
20260503193839 79 27 4.0 9.0 0.00 0.00 0.00 71 1019.3
20260503193335 80 336 8.0 13.0 0.00 0.00 0.00 73 1019.2
20260503192831 81 275 1.0 3.0 0.00 0.00 0.00 70 1019.2
20260503192327 80 355 3.0 3.0 0.00 0.00 0.00 72 1019.1
20260503191823 79 12 2.0 6.0 0.00 0.00 0.00 74 1019.4
20260503191321 79 57 1.0 4.0 0.00 0.00 0.00 75 1019.2
20260503190817 78 70 2.0 4.0 0.00 0.00 0.00 75 1019.2
20260503190315 79 292 4.0 9.0 0.00 0.00 0.00 73 1019.1
20260503185812 79 9 6.0 7.0 0.00 0.00 0.00 73 1019.3